Location: Al Miqallah
(24.2167°N, 32.8833°E)
Time: 18:18:51
(UTC+00:00)

Daily predictions for brighter satellites

Satellite Brightness Start Highest point End
(mag) Time Altitude Azimuth Time Altitude Azimuth Time Altitude Azimuth
Centaur D AC-28 4.0 14:55:04 10° WNW 15:00:23 77° SSW 15:39:08 10° ESE
Centaur D AC-28 4.0 14:55:03 10° WNW 15:00:23 77° SSW 15:39:08 10° ESE
Centaur D AC-28 4.0 14:55:04 10° WNW 15:00:23 77° SSW 15:39:09 10° ESE
Centaur D AC-28 4.0 14:55:03 10° WNW 15:00:24 77° SSW 15:39:08 10° ESE
Centaur D AC-28 4.0 14:55:03 10° WNW 15:00:24 77° SSW 15:39:09 10° ESE
Centaur AC-42 2.1 15:37:02 10° WSW 15:40:44 47° S 15:44:35 10° ESE
Cosmos 1821 Rocket 4.3 15:34:54 10° SSE 15:40:59 49° E 15:47:05 10° NNE
Cosmos 1536 Rocket 3.5 15:40:30 10° N 15:44:49 85° E 15:49:08 10° S
Cosmos 389 Rocket 2.3 15:42:11 10° S 15:45:32 70° E 15:48:53 10° NNE
Meteosat 1 Rocket2 3.9 15:42:39 10° WNW 15:47:38 75° NNE 15:55:22 10° E
Cosmos 2297 Rocket 2.2 15:42:22 10° N 15:47:58 63° ENE 15:53:31 10° SSE
Delta 128 3.7 15:43:41 10° WNW 15:48:10 81° SSW 15:53:06 10° ESE
ARGOS 4.0 15:44:18 10° SE 15:48:46 27° ENE 15:53:13 10° NNE
CZ-4C R/B 2.8 15:48:57 10° NNE 15:52:18 72° ESE 15:55:33 10° S
deb Chang Zheng 4 3.5 15:48:25 10° SSE 15:52:33 64° ENE 15:56:42 10° N
Cosmos 1697 Rocket 4.3 15:48:56 10° SW 15:54:08 38° WNW 15:59:23 10° N
Cosmos 1125 Rocket 4.1 15:50:24 10° SSW 15:55:37 63° WNW 16:00:50 10° N
IRAS Rocket 4.2 15:55:08 10° NNE 16:00:38 64° ESE 16:06:03 10° S
CZ-2C R/B 2.4 16:01:20 10° W 16:04:21 28° NNW 16:07:12 10° NE
Cosmos 1908 3.2 16:00:39 10° S 16:04:32 85° E 16:08:25 10° N
GPS 2-14 Rocket1 4.2 16:01:20 10° WSW 16:04:41 28° SSW 16:08:00 10° SE
Cosmos 2278 3.7 15:59:03 10° SSW 16:04:42 85° ESE 16:10:23 10° NNE
Cosmos 371 Rocket 4.2 16:02:20 10° SSE 16:06:16 25° E 16:10:15 10° NE
Cosmos 1934 Rocket 4.4 16:01:17 10° SSE 16:06:56 39° E 16:12:32 10° NNE
SWIFT 2.8 16:05:21 10° WSW 16:09:23 49° S 16:12:20 17° ESE
Delta 142 3.5 16:04:46 10° WNW 16:09:40 73° NNE 16:12:40 18° E
Centaur AC-116 3.7 16:02:03 10° WNW 16:11:07 60° SSW 16:13:30 15° SE
MOS 1-B Rocket 4.1 16:04:46 10° N 16:11:14 81° WNW 16:16:58 10° SSW
Cosmos 2227 Rocket 2.1 16:08:44 10° NNW 16:14:24 78° ENE 16:20:01 10° SSE
Meteor 1-16 Rocket 4.4 16:10:51 10° S 16:16:47 86° W 16:22:42 10° N
Timation 2 Rocket 4.2 16:11:38 10° N 16:18:20 56° ENE 16:24:45 10° SSE
Iridium 4 Rocket 4.0 16:14:17 10° NNE 16:18:21 30° E 16:22:43 10° SSE
Intelsat 5-3 Rocket 3.7 16:17:00 10° WSW 16:18:23 14° SSW 16:19:45 10° SSE
Okean O Rocket 1.5 16:14:23 10° SSE 16:18:42 83° E 16:23:03 10° N
Delta 2 Rocket 2.6 16:15:24 10° WSW 16:18:45 77° SSE 16:20:22 28° ENE
Cosmos 494 Rocket 4.2 16:14:16 10° N 16:19:13 45° ENE 16:24:08 10° SE
CZ-2C R/B 3.4 16:14:45 10° N 16:20:13 57° WNW 16:25:35 10° SSW
Cosmos 1356 3.9 16:17:18 10° NNW 16:20:38 62° W 16:23:57 10° S
SL-16 R/B 2.7 16:17:06 10° SSE 16:22:11 35° ESE 16:26:49 12° NE
Maqsat-H 4.2 16:24:14 10° S 16:24:48 10° SSE 16:25:23 10° SSE
GPS 2-15 Rocket1 3.7 16:20:09 10° WSW 16:24:56 49° S 16:27:37 24° ESE
YAOGAN 1 3.1 16:22:08 10° SE 16:26:04 35° ENE 16:30:00 10° N
CZ-4 R/B 1.9 16:24:24 20° SE 16:26:31 34° ENE 16:30:05 10° N
NOSS 3-1 (A) 4.1 16:24:24 10° SSE 16:27:48 22° ESE 16:27:48 22° ESE
CZ-3 Stage 3 4.3 15:19:34 10° W 16:30:29 69° N 16:37:20 23° ENE
Cosmos 1455 Rocket 3.2 16:26:20 10° S 16:30:41 76° W 16:35:04 10° N
DMSP B5D1-3 4.4 16:27:38 10° NNE 16:32:47 82° ESE 16:37:55 10° S
ATLAS 2A CENTAUR R/B 3.4 16:24:14 10° W 16:32:52 40° SW 16:35:03 18° SSE
Spot 2 3.8 16:29:19 10° SSE 16:33:16 62° ENE 16:37:17 10° N
DMSP B5D2-2 3.9 16:29:15 10° NNE 16:34:29 78° ESE 16:39:41 10° S
Cosmos 1953 3.9 16:32:39 10° SSW 16:36:23 37° W 16:40:09 10° NNW
GPS 2-04 Rocket1 4.0 16:34:36 10° NW 16:37:33 22° NNE 16:37:41 22° NNE
Cosmos 1703 3.1 16:35:02 10° N 16:38:53 63° E 16:42:44 10° SSE
Cosmos 2082 3.7 16:34:01 10° N 16:39:32 57° ENE 16:44:25 13° SSE
Cosmos 2322 Rocket 2.6 16:35:10 10° S 16:40:17 37° ESE 16:41:27 34° ENE
Chunghua 1 4.3 16:38:20 10° WNW 16:41:58 83° NNE 16:42:25 66° ESE
Cosmos 1544 Rocket 3.4 16:39:28 10° S 16:43:53 80° E 16:48:20 10° N
USA 267 4.2 16:38:01 10° SSE 16:44:15 47° SW 16:50:32 10° NW
H-2A R/B 3.5 16:39:35 10° SSW 16:44:27 40° W 16:49:27 10° NNW
Tiangong 3.3 16:43:10 10° WNW 16:45:28 18° NNW 16:46:24 16° N
Milstar 3 Cent rocket 3.7 16:40:54 10° SW 16:47:23 49° SE 16:52:43 30° E
Meteor 1-21 Rocket 4.3 16:41:51 10° N 16:47:44 90° N 16:53:39 10° S
H-2A R/B 2.4 16:44:08 10° N 16:48:11 61° WNW 16:52:18 10° SSW
NOSS 2-3 (D) 3.2 16:45:51 10° SSW 16:49:55 77° ESE 16:50:30 62° NE
CZ-4B R/B 3.5 16:55:05 18° S 16:55:05 18° S 16:56:04 10° S
Delta 198 3.0 16:49:05 10° W 16:53:03 75° S 16:53:04 75° S
Cosmos 1300 2.8 16:50:39 10° S 16:54:25 71° W 16:57:58 12° N
Cosmos 2360 Rocket 4.0 16:51:01 10° SSE 16:52:01 14° SSE 16:52:01 14° SSE
NOSS 3-1 (C) 3.0 16:52:05 10° SSW 16:57:00 79° WNW 17:00:11 25° NNE
ATLAS 5 CENTAUR R/B 4.2 16:57:07 10° W 16:58:52 13° NW 17:00:40 10° NNW
NOSS 2-3 (C) 3.6 16:58:45 10° SW 17:02:44 65° WNW 17:03:12 59° NNW
Cosmos 1605 Rocket 3.8 17:00:13 10° S 17:06:21 83° E 17:12:38 10° N
Centaur AC-112 2.9 16:55:07 10° W 17:06:39 70° N 17:07:01 66° NNE
Cosmos 405 Rocket 3.7 17:04:47 10° NNW 17:07:30 42° NNW 17:07:30 42° NNW
IRS-1C Rocket 3.9 17:08:16 58° SSE 17:09:17 79° ENE 17:14:33 10° N
H-2A R/B 4.0 17:10:33 10° SSW 17:14:41 37° W 17:18:46 10° NNW
Cosmos 967 Rocket 4.4 17:09:05 10° NNW 17:15:22 63° ENE 17:15:22 63° ENE
Cosmos 332 Rocket 4.3 17:11:43 10° SSW 17:15:19 50° SSW 17:15:19 50° SSW
Stardust Del rocket 4.3 17:12:30 10° W 17:16:27 43° WSW 17:16:27 43° WSW
Meteor 2-10 Rocket 3.6 17:15:04 10° S 17:20:51 87° W 17:22:14 54° N
Cosmos 2263 Rocket 3.8 17:29:03 10° N 17:31:02 23° N 17:31:02 23° N
CZ-3B Rocket 3.3 17:44:02 10° WSW 18:28:39 - E 17:47:25 49° SSW
USA 229 DEB 4.2 17:49:49 10° SW 17:54:53 50° W 17:54:53 50° W
USA 229 4.2 17:49:54 10° SW 17:54:54 49° W 17:54:54 49° W
SL-16 R/B 4.4 18:02:04 10° WSW 18:06:15 21° WNW 18:08:50 16° NNW
